Temp
15 15 15 15 15 15 15 15 15 15 15 15 15 15 15 14 14 14 14 14 14 14 14 14 15 15 15 15 15 15 16 16 16 16 16 16 16 16 16 16 16 16 16 16 16 16 15 15 15 14 14 15 15 15 15 15 15 15 15 15 15 15 14 15 15 15 15 14 14
15 15 15 15 15 15 15 15 15 15 15 15 15 15 15 15 15 15 14 14 14 14 15 15 15 15 15 15 15 15 15 16 16 16 16 16 16 16 16 16 16 16 16 16 16 15 15 15 14 14 14 14 14 14 14 14 14 14 14 15 15 14 14 14 14 15 15 14 14
15 15 15 15 15 15 15 15 15 15 15 15 15 15 15 15 15 15 15 15 15 15 15 14 14 15 15 15 15 15 15 15 15 15 15 15 16 16 15 15 15 15 15 15 15 15 15 14 14 14 14 14 14 14 14 14 14 14 14 14 14 14 14 14 14 14 14 14 14
15 15 15 15 15 15 15 15 15 15 15 15 15 15 15 15 15 15 15 15 15 15 15 15 14 14 14 14 15 15 15 15 15 15 15 15 15 15 15 15 15 15 15 15 14 14 14 14 13 13 13 13 14 14 14 14 13 13 13 14 14 14 14 14 14 14 14 14 13
15 15 15 15 15 15 15 15 15 15 15 15 15 15 15 15 15 15 15 15 15 15 15 15 15 15 14 14 14 15 15 15 15 15 15 15 15 14 14 14 14 14 14 14 14 13 13 13 13 13 13 13 13 13 14 13 13 12 13 13 13 13 13 13 14 14 14 13 13
15 15 15 15 15 15 15 15 15 15 15 15 15 15 15 15 15 15 15 15 15 15 15 15 15 15 15 14 14 14 14 14 14 14 14 14 14 14 13 13 13 13 13 13 13 13 13 13 13 12 12 13 13 13 13 12 12 12 12 12 12 12 13 13 13 13 13 13 13
15 15 15 15 15 15 15 15 15 15 15 15 15 15 15 15 15 15 15 15 15 15 15 15 15 15 14 14 14 14 14 14 14 14 14 14 14 13 13 13 13 12 12 12 12 12 12 12 12 12 12 12 12 12 12 12 11 11 11 11 12 12 12 12 13 13 13 13 13
15 15 15 15 15 15 15 15 15 15 15 15 15 15 15 15 15 15 15 15 15 15 15 15 15 15 14 14 14 14 14 14 14 14 14 13 13 13 13 12 12 12 12 12 12 12 12 12 12 12 12 12 11 11 11 11 11 11 11 11 12 12 12 12 12 12 12 12 12
15 15 15 15 15 15 15 15 15 15 15 15 15 15 15 15 15 15 15 15 15 15 15 15 15 15 14 14 14 14 14 14 14 14 13 13 13 13 12 12 12 12 12 12 12 12 12 12 12 12 12 12 11 11 11 11 11 11 11 11 12 12 12 12 12 11 11 12 12
15 15 15 15 15 15 15 15 15 15 15 15 15 15 15 15 15 15 15 15 15 15 15 15 15 15 14 14 14 14 14 14 14 13 13 13 13 12 12 12 12 12 12 12 12 12 12 12 12 12 12 12 11 11 11 11 11 11 11 11 11 11 11 11 12 12 11 11 11
16 16 16 15 15 15 15 15 15 15 15 15 15 15 15 15 15 15 15 15 15 15 15 15 15 15 15 14 14 14 14 14 14 13 13 13 13 12 12 12 12 12 12 12 12 12 12 11 12 12 12 12 11 11 11 11 11 11 11 11 11 11 11 11 11 11 11 11 11
16 16 16 16 16 15 15 15 15 15 15 15 15 15 15 15 15 15 15 15 15 15 15 15 15 15 15 14 14 14 14 14 13 13 13 13 13 12 12 13 12 12 12 12 12 12 12 11 12 12 12 11 11 11 11 11 11 11 11 11 11 11 10 10 11 11 11 11 11
16 16 16 16 16 16 16 15 15 15 15 15 15 14 14 14 15 15 15 15 15 15 15 15 15 15 15 14 14 14 14 14 13 13 13 13 13 13 13 13 13 12 12 12 12 12 12 12 12 12 11 11 11 11 10 10 11 11 11 11 11 10 10 10 11 11 11 11 11
16 16 16 16 16 16 16 16 16 15 15 15 15 15 15 14 14 14 14 14 15 15 15 15 15 15 15 14 14 14 14 13 13 13 13 13 13 13 13 13 13 13 12 12 12 12 12 12 12 11 11 11 11 11 10 11 11 11 11 11 11 11 10 10 10 11 11 11 11
17 17 17 17 17 16 16 16 16 16 16 15 15 15 15 15 15 15 14 14 14 14 14 14 14 14 14 14 14 14 14 13 13 13 13 13 13 13 13 13 13 13 12 12 12 12 12 12 11 11 11 11 11 11 11 11 11 11 11 11 11 11 10 10 10 10 10 10 10
17 17 17 17 17 17 16 16 16 16 16 16 16 15 15 15 15 15 15 14 14 14 14 14 14 14 14 14 14 14 14 13 13 13 13 13 13 13 13 13 12 12 12 12 12 12 12 12 11 11 11 11 11 11 11 11 11 11 11 11 11 10 10 10 10 10 10 10 10
17 17 17 17 17 17 17 17 17 17 16 16 16 16 16 16 15 15 15 15 14 14 14 14 14 14 14 14 14 14 14 13 13 13 13 13 13 13 13 13 12 12 12 12 12 12 12 11 11 11 11 10 10 11 11 11 11 11 11 11 11 11 10 10 10 10 10 10 10
17 17 17 17 17 17 17 17 17 17 17 17 16 16 16 16 16 16 15 15 15 14 14 14 14 14 14 14 14 14 13 13 13 13 13 13 13 13 13 13 12 12 12 12 12 12 11 11 11 11 10 10 10 10 10 10 10 10 10 11 11 11 10 10 10 10 10 10 10
17 17 17 17 16 16 16 17 17 17 17 17 17 17 17 16 16 16 16 15 15 15 14 14 14 14 14 14 14 14 13 13 13 13 13 13 13 13 12 12 12 12 12 12 12 12 11 11 11 10 10 10 10 10 10 10 10 10 10 10 10 10 10 10 10 10 10 10 10
18 17 17 17 17 16 16 16 16 17 17 17 17 17 17 17 16 16 16 16 15 15 15 14 14 14 14 14 14 14 14 14 13 13 13 13 13 13 12 12 12 12 12 12 12 11 11 11 10 10 10 10 9 9 9 10 10 10 10 10 10 10 10 9 9 9 9 9 9
18 18 18 17 17 17 16 16 16 16 17 17 17 17 17 17 16 16 16 16 15 15 15 15 14 14 14 14 14 14 14 14 14 13 13 13 13 12 12 12 12 12 12 11 11 11 11 10 10 10 10 9 9 9 9 9 10 10 10 9 9 9 9 9 9 8 8 8 9
18 18 18 18 18 17 17 17 17 16 17 17 17 17 17 17 16 16 16 15 15 15 15 15 14 14 14 14 14 14 14 14 13 13 13 13 13 12 12 12 12 12 11 11 11 11 11 10 10 10 9 9 8 8 8 9 9 10 10 9 9 8 8 8 8 7 7 7 8
18 18 18 18 18 17 17 17 17 17 17 17 17 17 17 17 17 16 16 15 15 15 15 15 15 14 14 14 14 14 14 14 13 13 13 13 13 12 12 12 12 12 11 11 11 10 10 11 10 10 9 9 9 8 8 8 9 10 10 9 9 8 7 7 7 7 7 7 7
18 18 18 18 18 18 17 17 17 17 17 17 17 17 17 17 17 16 16 16 15 15 15 15 15 15 15 14 14 14 14 13 13 13 13 12 12 12 12 12 11 11 11 11 10 11 11 11 10 10 9 9 8 8 8 8 8 9 9 9 8 7 7 6 6 6 6 6 6
18 18 18 18 18 18 17 17 17 17 17 17 17 17 17 17 17 16 16 16 16 15 15 15 15 15 14 14 14 14 13 13 13 13 12 12 12 12 12 11 11 11 10 10 10 11 11 11 10 10 9 8 7 7 7 7 8 8 8 8 8 7 6 6 6 6 6 6 6
18 18 18 18 18 18 17 17 17 17 17 17 17 17 17 17 17 17 16 16 16 16 15 15 15 15 14 14 14 13 13 13 13 12 12 12 11 11 11 11 11 11 10 10 10 10 10 10 10 10 9 8 7 7 7 7 7 8 8 7 7 7 6 6 6 6 6 6 6
18 18 18 18 18 18 18 17 17 17 17 17 17 17 17 17 17 17 16 16 16 16 15 14 14 14 14 14 13 13 13 13 13 12 12 12 11 11 11 10 10 10 10 9 10 10 10 10 10 10 9 8 7 7 7 7 7 7 7 7 6 6 6 6 6 6 6 6 6
18 18 18 18 18 18 18 18 18 17 17 17 17 17 17 17 17 17 17 16 16 16 15 15 14 14 14 14 13 13 13 13 12 12 12 11 11 11 10 10 9 9 9 10 10 10 11 10 10 9 9 8 8 7 7 7 7 6 6 6 6 6 6 6 6 6 6 6 6
19 18 18 18 17 17 18 18 18 18 17 17 17 17 17 17 17 17 17 16 16 16 15 15 14 14 13 13 13 13 13 12 12 12 11 11 11 11 11 10 10 9 10 10 10 11 11 10 10 9 9 9 8 7 7 7 7 6 6 6 6 6 6 6 6 6 6 6 6
19 19 18 18 17 17 17 18 18 18 18 18 17 17 17 17 17 17 16 16 16 16 15 15 14 14 13 13 13 12 12 12 12 11 11 10 10 10 11 11 10 10 10 11 11 11 11 10 10 9 9 9 8 8 7 7 7 7 6 6 6 6 6 6 6 6 6 6 6
20 19 19 18 18 17 17 18 18 18 18 18 18 17 17 17 17 17 16 16 16 16 15 15 14 14 13 13 13 12 12 12 11 11 10 10 10 10 10 10 10 10 11 11 11 11 11 10 10 10 9 9 8 8 7 7 7 7 6 6 6 6 6 6 6 6 6 6 6
20 19 19 18 18 17 17 17 18 18 18 18 18 18 17 17 17 17 16 16 16 15 15 15 14 14 13 13 12 12 11 11 11 10 10 10 10 10 10 10 10 11 11 11 12 11 11 11 10 10 10 9 9 8 7 7 7 7 6 6 6 6 6 6 6 6 6 6 6
20 20 19 18 18 17 17 17 17 18 18 18 18 18 17 17 17 17 16 16 16 15 15 14 14 14 13 12 12 11 11 11 10 10 10 10 10 10 10 10 11 11 11 11 11 11 11 11 11 10 10 9 9 8 8 7 7 7 6 6 6 6 6 6 6 6 6 6 6
20 20 19 18 18 17 17 17 17 17 18 18 18 18 17 17 17 16 16 16 16 15 14 14 14 13 13 12 12 11 10 10 10 9 10 10 10 10 10 11 11 11 11 11 11 11 11 11 11 10 10 9 9 8 8 7 7 6 6 6 6 6 6 6 6 6 6 6 6
20 20 19 18 18 17 17 17 17 17 17 17 18 18 17 17 16 16 16 16 16 15 14 13 13 13 12 12 11 11 10 9 9 9 10 10 10 10 10 10 11 11 11 11 11 11 11 11 11 10 10 9 9 8 7 7 7 6 6 6 6 6 6 6 6 6 6 6 6
20 20 19 19 18 17 17 17 16 16 17 17 17 17 17 17 16 16 16 16 15 14 13 12 12 12 11 11 10 10 10 9 9 10 10 10 10 10 10 10 11 11 11 11 11 12 12 11 11 10 10 9 8 8 7 7 6 6 6 6 6 6 6 6 6 6 6 6 6
19 20 19 18 18 17 17 16 16 16 16 16 17 17 16 16 16 16 16 15 15 14 13 12 11 11 11 11 10 9 9 10 10 10 10 10 9 10 10 11 11 11 11 11 12 12 12 12 11 10 9 9 8 7 7 6 6 6 6 6 6 6 6 6 6 6 6 6 6
19 19 19 18 17 17 16 16 16 16 16 16 16 16 16 16 16 16 15 15 14 13 12 11 11 10 10 10 10 9 9 10 10 10 10 10 9 10 10 11 11 11 11 11 11 11 11 11 11 10 9 8 8 7 7 6 6 6 6 6 6 6 6 6 6 6 6 6 5
19 19 18 18 17 17 16 16 16 16 16 16 16 16 16 16 16 15 15 14 14 13 12 11 11 10 10 10 9 9 9 10 10 10 10 9 10 10 10 11 11 11 11 11 11 11 11 10 10 9 9 8 8 7 7 6 6 6 6 6 6 5 5 5 5 5 5 5 5
19 19 18 18 17 17 16 16 16 16 16 15 15 15 15 15 15 15 14 14 13 13 12 12 11 10 10 10 9 9 9 9 9 9 9 9 10 10 10 11 11 11 11 10 10 10 10 9 9 9 9 8 8 7 7 6 6 6 6 5 5 5 5 5 5 5 5 5 5
18 18 18 18 17 17 16 16 15 15 15 15 15 15 15 15 14 14 14 13 13 12 12 11 11 10 10 10 10 10 9 9 9 9 9 9 10 10 10 10 10 10 10 9 9 9 9 9 9 9 8 8 8 7 7 6 6 6 5 5 5 5 5 5 4 4 4 4 4
Height
773 773 774 775 776 777 778 779 780 781 781 782 783 784 785 786 787 788 789 790 790 791 791 792 793 794 795 796 797 798 799 800 801 802 803 804 805 806 807 808 808 809 810 811 812 814 815 816 817 818 818 819 820 821 822 823 823 823 824 824 824 825 825 826 826 826 826 826 827
771 772 772 773 774 775 776 777 778 779 780 781 781 782 783 784 785 786 787 788 788 789 790 791 792 793 794 795 796 796 797 798 799 800 801 802 803 804 805 806 806 807 808 810 811 812 813 815 816 816 817 818 819 820 820 821 821 822 822 822 822 823 823 824 824 824 825 825 826
769 770 771 772 772 773 774 776 776 777 778 779 780 781 781 782 783 784 785 786 786 787 788 789 790 791 792 793 794 795 796 796 797 798 799 800 801 802 803 804 805 806 807 808 810 811 812 813 814 815 816 816 817 818 818 819 820 820 820 820 820 821 821 822 822 823 824 825 826
767 768 769 770 770 771 772 773 774 775 776 777 778 779 780 781 781 782 783 784 785 786 786 787 788 789 790 791 792 793 794 795 796 796 797 798 799 800 801 802 803 804 806 807 808 810 811 812 813 814 814 815 815 816 816 817 817 818 818 818 819 819 820 821 821 822 823 824 825
766 766 767 768 768 769 770 771 772 773 774 775 777 778 778 779 780 781 781 782 783 783 784 785 786 787 788 789 790 791 792 793 794 795 795 796 797 798 800 801 802 803 805 806 807 809 810 811 812 812 813 813 813 814 814 815 816 816 816 817 817 818 819 820 821 821 822 823 824
764 765 765 766 767 767 768 770 771 771 773 774 775 776 776 777 778 779 780 780 781 781 782 783 784 786 786 787 788 789 790 791 791 792 793 795 796 797 799 800 801 803 804 805 806 808 809 810 811 811 811 812 812 812 813 814 815 815 816 816 816 817 818 819 820 821 821 822 823
762 763 764 765 766 766 767 768 769 771 771 772 773 773 774 775 776 776 777 778 779 780 781 781 782 784 785 786 786 787 787 789 789 791 791 793 795 796 798 799 801 802 803 804 805 806 807 808 809 810 810 810 811 811 811 813 813 814 815 816 816 817 818 819 819 820 821 821 822
761 761 762 763 764 765 766 767 768 769 770 771 771 771 771 772 774 774 775 776 777 778 779 780 780 781 782 783 784 785 785 786 787 789 790 792 793 795 797 798 799 801 801 802 803 804 806 806 807 808 808 809 809 809 810 811 812 813 814 815 816 817 818 819 819 820 821 821 821
759 760 761 762 763 764 765 766 767 768 768 768 768 769 770 771 772 773 774 775 775 776 777 778 778 779 780 781 782 783 783 785 786 787 789 791 792 794 795 796 797 798 799 800 801 802 803 804 805 806 806 807 807 808 809 810 811 813 814 815 816 817 818 819 819 820 821 821 821
757 758 759 761 761 762 764 765 766 766 766 766 767 768 769 770 771 771 772 772 774 775 776 776 776 777 778 779 780 781 782 783 784 786 788 789 790 792 793 794 795 796 797 798 799 800 801 802 803 803 804 805 806 807 808 810 811 813 814 815 816 817 817 818 818 819 820 820 820
755 756 757 759 760 761 762 763 764 765 765 765 766 766 767 768 769 770 770 771 773 773 774 774 775 776 776 777 778 779 780 781 783 785 786 787 788 789 791 791 792 793 794 795 796 797 798 799 800 801 801 802 804 806 807 809 811 813 814 815 816 816 816 816 816 817 818 818 818
752 754 755 756 758 759 761 761 762 763 763 764 764 765 766 766 767 768 769 771 771 771 771 772 773 774 774 775 776 777 779 780 781 783 784 785 786 786 787 789 790 790 791 792 793 794 795 796 796 797 799 800 802 805 806 809 811 812 813 814 815 815 815 815 815 815 816 816 817
750 751 753 754 756 757 758 759 760 761 761 762 762 763 764 765 766 767 768 769 769 769 770 771 772 772 773 773 774 776 777 778 779 780 781 783 783 784 785 786 787 788 788 789 791 791 792 792 793 794 796 798 801 803 805 806 808 809 810 811 812 813 814 814 814 814 815 815 816
747 749 750 751 753 755 756 756 757 758 759 760 760 761 762 763 764 765 766 767 767 767 768 770 770 771 771 772 773 774 775 776 777 778 779 780 781 781 782 783 784 785 786 787 788 789 789 790 791 792 794 796 799 801 803 804 805 806 807 808 809 811 812 813 813 813 813 813 813
744 746 747 748 750 751 752 753 754 755 756 757 758 759 760 761 762 763 764 764 765 765 766 768 768 769 769 770 771 772 773 774 774 775 776 777 778 779 780 781 782 783 785 786 787 787 787 788 789 791 793 795 796 798 799 801 802 803 804 806 807 809 811 811 811 811 811 811 811
741 742 743 745 746 748 749 750 751 752 753 754 755 756 758 759 760 761 761 761 762 763 765 766 766 767 768 768 769 770 771 771 772 772 773 774 775 776 778 779 781 782 784 785 786 786 786 786 788 790 791 792 792 793 794 796 798 800 802 804 805 806 807 808 809 809 809 808 808
738 739 740 742 743 745 746 747 749 750 751 752 753 754 755 756 757 757 758 758 759 761 762 763 764 765 766 766 767 768 768 769 769 770 771 771 772 774 776 777 779 781 782 783 784 784 785 785 786 788 789 790 790 790 791 792 795 797 799 801 801 802 803 804 805 806 806 806 805
736 736 738 739 740 742 743 745 746 747 749 750 751 751 752 752 753 753 754 755 756 757 759 760 761 763 764 765 765 766 766 767 767 767 768 769 770 772 774 776 777 779 780 780 780 781 782 783 784 786 787 788 789 789 790 791 792 794 796 797 798 799 800 801 802 802 802 802 802
733 735 736 736 737 738 739 741 743 745 746 746 747 747 747 747 748 749 750 751 752 754 756 757 759 761 762 762 763 763 764 764 765 765 766 767 768 770 771 773 774 776 776 776 777 778 780 781 782 783 785 787 788 790 790 791 791 792 793 794 795 796 797 798 799 799 800 800 800
730 731 732 733 733 734 735 736 737 739 740 742 743 743 743 743 744 746 747 748 750 752 754 755 757 758 759 760 761 761 761 761 762 762 763 765 766 767 769 770 771 772 773 774 775 776 778 779 780 781 783 785 788 790 791 791 791 791 792 793 793 794 795 795 796 796 797 797 797
726 727 728 729 730 731 732 732 733 734 735 736 736 736 737 738 741 742 744 747 749 751 751 752 754 755 756 756 757 757 757 758 759 760 761 762 764 765 766 767 768 769 771 772 774 775 776 777 778 779 781 783 786 788 789 790 791 791 791 791 791 791 792 793 793 794 795 795 795
722 723 724 726 727 728 729 730 731 733 733 733 733 733 734 736 738 740 742 744 746 748 749 750 751 752 753 753 753 753 754 755 756 757 758 760 761 762 764 765 766 767 769 770 772 773 774 775 776 778 780 781 783 784 786 786 787 788 788 788 789 789 789 790 791 791 792 792 793
718 719 721 722 724 725 726 728 729 731 731 732 732 732 733 735 736 738 739 741 743 745 746 747 749 750 751 750 750 751 751 753 754 756 757 758 759 761 762 763 764 766 766 768 769 770 771 773 775 777 779 779 779 779 780 781 782 784 784 785 786 786 787 787 788 789 789 790 791
715 716 718 720 721 723 724 725 726 728 728 729 729 730 731 732 734 736 737 738 740 742 743 744 745 746 747 748 748 749 751 752 753 754 755 756 758 759 761 762 763 764 765 766 766 768 770 773 775 776 776 776 776 776 776 777 779 780 781 782 783 783 784 785 786 786 787 788 789
711 713 715 717 718 720 721 722 723 724 724 725 726 727 729 730 732 733 734 735 737 739 741 743 744 745 745 746 747 748 749 750 751 752 754 756 757 759 761 762 763 764 764 765 766 768 771 772 773 773 773 773 773 774 775 776 777 778 779 779 780 781 781 782 783 784 785 786 786
709 710 712 713 715 716 718 718 719 719 720 721 722 724 726 728 730 731 732 733 734 736 738 742 744 744 744 744 745 746 747 748 749 750 752 755 757 759 760 761 762 763 764 765 766 769 770 771 770 770 771 771 772 773 774 775 775 776 776 777 778 778 780 781 781 782 783 784 784
706 707 708 710 711 713 714 714 715 716 717 718 720 721 723 725 727 729 730 731 731 732 734 738 741 743 743 743 743 743 744 745 746 749 751 753 756 757 759 759 760 761 763 765 767 768 768 768 768 769 771 771 771 772 772 773 773 774 775 776 776 777 778 779 779 780 781 782 783
703 704 705 706 708 709 710 711 712 713 714 715 717 719 721 723 725 726 727 728 729 729 731 733 736 740 741 741 741 741 741 743 744 746 749 751 752 754 756 756 758 759 761 764 766 766 766 766 767 769 770 770 770 771 771 771 772 773 773 774 775 775 776 777 777 779 780 781 781
699 700 701 703 704 705 706 708 709 710 711 712 715 717 719 721 723 724 725 726 726 727 728 729 731 735 737 739 739 739 740 741 742 744 746 747 749 751 752 754 756 759 762 763 764 764 765 765 766 767 768 768 769 770 770 771 771 771 772 772 773 773 774 775 776 777 778 779 780
696 696 697 698 699 701 702 703 704 706 708 711 713 716 718 719 721 721 722 723 724 725 725 726 728 730 732 734 736 737 738 739 740 741 743 745 746 748 750 753 756 759 761 762 762 762 762 763 764 765 765 766 767 768 768 769 769 770 770 770 771 771 772 773 774 776 776 777 778
693 693 694 695 696 696 697 698 700 703 706 709 711 713 715 716 717 718 719 721 722 723 724 725 726 727 729 731 732 734 736 737 738 739 741 742 745 747 749 752 755 757 759 759 759 759 760 760 761 761 762 763 765 765 766 766 767 767 767 768 769 770 771 772 773 774 775 776 776
690 691 691 692 692 693 694 695 698 701 704 707 709 711 711 712 713 715 717 719 721 722 722 723 724 725 726 728 730 732 733 735 736 737 739 741 744 746 749 751 753 754 755 756 756 756 756 757 757 758 759 761 762 762 763 764 764 765 765 766 767 768 769 770 771 772 773 774 775
689 689 690 690 690 691 692 694 697 700 702 704 706 707 708 709 711 713 715 717 719 720 720 721 721 723 724 726 728 730 731 732 734 736 737 740 742 745 747 750 751 752 751 752 752 753 753 754 755 756 757 758 759 760 761 761 762 763 763 764 766 767 768 769 769 770 771 772 773
687 688 688 688 689 690 692 694 696 699 701 702 703 704 705 707 709 711 713 715 717 718 718 719 719 721 722 723 725 727 729 731 733 735 737 739 741 744 746 747 748 749 749 749 750 750 751 752 753 753 754 756 756 757 758 759 760 761 762 763 764 765 766 767 768 768 769 770 771
686 686 687 688 689 691 692 694 696 697 699 700 701 702 703 705 707 709 711 713 715 716 717 718 719 720 721 723 725 726 728 730 732 734 736 739 741 743 744 745 745 746 746 747 747 748 749 750 751 751 752 753 754 755 756 758 759 760 761 761 763 764 765 765 766 767 768 769 770
684 686 686 687 688 690 691 693 694 696 697 698 700 701 702 704 706 707 710 711 713 715 716 717 718 720 721 723 725 726 727 729 731 734 736 738 740 741 741 742 742 743 743 744 745 746 746 747 748 749 750 751 752 754 755 756 757 758 759 761 761 762 763 764 765 766 767 768 769
683 684 685 686 687 689 690 691 693 694 696 697 698 700 701 702 704 706 708 710 711 712 714 715 717 718 720 722 724 726 727 729 731 733 735 737 738 738 738 739 739 740 740 741 741 742 743 745 746 747 748 750 751 752 754 755 756 757 758 759 760 761 762 763 764 765 766 766 767
681 682 683 684 686 687 688 690 691 693 694 695 696 698 699 701 703 704 706 707 709 710 712 714 716 717 719 721 723 726 727 729 731 733 735 736 736 736 736 736 736 736 737 738 738 739 741 742 744 745 746 748 749 751 752 754 755 756 757 758 759 760 761 762 763 763 764 765 766
680 681 681 682 684 685 686 688 689 690 691 693 695 696 698 699 701 702 703 705 707 708 711 713 715 717 720 722 724 726 728 730 732 733 734 734 735 735 735 735 735 735 735 736 737 738 739 741 742 744 745 746 748 749 751 752 753 755 756 757 758 759 759 760 761 762 762 763 764
678 679 680 681 682 683 684 686 687 688 689 691 693 695 696 698 699 701 702 704 706 708 710 712 714 717 720 722 724 726 728 730 731 732 732 733 733 733 733 734 734 734 734 735 736 737 739 740 741 742 744 746 747 748 749 751 752 753 754 755 756 757 757 758 759 760 761 761 762
676 677 678 679 681 681 683 684 686 687 689 691 692 694 696 697 699 701 702 705 707 709 711 712 715 717 720 723 725 726 727 729 730 731 731 732 732 732 732 733 733 733 734 734 735 736 737 739 740 741 742 744 745 746 748 749 751 752 753 753 754 755 756 756 758 758 759 760 761
Wind_Speed
27 27 27 28 28 28 28 27 27 26 26 27 26 27 27 27 27 28 28 29 29 30 30 31 32 33 34 34 35 36 37 38 38 38 38 38 37 37 37 37 37 37 37 37 37 37 37 36 36 36 36 37 37 38 38 38 37 37 37 37 37 36 36 35 34 34 33 32 32
29 29 28 29 29 29 28 27 27 27 27 28 27 28 28 28 28 28 29 29 30 30 31 31 31 32 32 34 35 36 37 38 38 39 39 39 39 38 38 38 38 38 38 38 37 37 36 36 35 35 36 37 37 37 37 37 37 38 38 38 37 37 36 36 35 34 33 32 31
30 30 29 29 29 29 29 28 28 28 29 29 28 28 28 28 28 28 29 29 30 30 30 30 31 32 32 33 35 36 37 37 38 39 40 40 40 39 39 39 39 38 38 38 37 37 36 35 35 35 35 36 36 37 37 38 38 38 38 38 38 37 37 36 35 34 32 31 30
31 30 30 30 30 31 30 29 29 29 30 30 29 29 29 29 29 29 29 29 30 30 31 31 31 32 32 33 34 35 36 37 38 39 39 40 40 40 39 39 39 38 38 37 36 36 35 34 34 33 34 35 36 37 38 38 37 37 37 38 37 37 36 36 34 33 32 30 29
31 31 31 31 32 32 32 31 30 30 30 30 29 29 29 29 29 29 29 29 29 31 32 33 32 32 32 33 34 35 36 37 37 38 39 40 40 39 39 38 38 37 37 36 35 35 34 33 32 32 33 34 36 37 37 37 36 36 36 36 36 36 35 34 33 32 31 30 29
32 32 32 31 32 32 32 32 32 31 31 30 29 29 29 29 29 29 29 30 30 31 33 33 34 33 32 33 33 34 35 36 37 37 38 39 39 38 37 36 36 35 34 34 34 33 33 32 31 31 32 33 34 35 35 34 34 34 34 34 34 34 33 32 32 32 31 29 28
31 32 31 31 31 31 32 31 31 31 31 31 31 31 31 31 30 31 31 31 31 31 32 33 33 33 33 33 33 34 35 35 36 37 37 37 37 36 35 34 34 33 33 33 32 32 32 31 31 31 31 32 32 33 32 32 31 32 32 32 33 32 32 31 31 30 30 29 28
31 31 31 31 31 31 31 32 31 31 31 32 33 34 34 33 33 32 32 32 31 31 31 32 33 34 34 34 34 34 35 35 35 35 36 36 35 34 33 33 32 32 32 32 32 31 31 31 31 31 31 31 31 31 31 30 29 30 30 30 30 30 30 29 29 29 28 28 27
30 30 31 31 31 31 31 31 31 31 31 33 34 35 36 35 35 34 33 33 33 32 32 32 32 33 34 34 35 35 35 35 34 34 34 34 33 33 32 32 32 32 32 32 31 30 30 30 30 31 31 31 31 31 30 29 28 28 28 29 29 29 29 29 29 28 27 27 27
30 30 30 30 30 31 31 31 31 32 32 33 34 35 36 36 36 36 35 34 33 33 32 32 32 33 33 34 35 35 35 35 34 33 32 32 32 31 31 30 31 32 32 31 31 30 29 30 30 31 32 32 31 30 29 28 26 26 26 27 28 28 29 29 29 29 29 28 27
31 31 30 30 30 30 30 30 31 32 32 33 34 35 35 36 37 37 37 35 33 32 33 34 33 33 33 34 35 35 35 35 34 31 30 30 31 31 31 31 31 31 32 32 31 30 30 30 31 31 32 32 31 30 28 27 25 24 24 25 26 27 28 29 30 30 30 29 28
32 31 31 30 30 30 30 30 31 31 32 32 33 34 34 36 37 37 37 35 34 34 34 35 34 33 33 34 34 34 34 33 33 32 30 29 30 31 31 32 32 32 32 32 32 31 31 31 31 32 31 31 30 28 27 26 24 24 24 25 26 27 27 28 29 29 29 29 28
34 32 32 31 30 30 30 30 31 31 31 32 32 33 33 34 35 36 35 35 35 35 35 34 33 33 34 33 33 33 32 32 32 31 31 30 30 31 31 32 32 33 33 32 32 31 31 32 32 32 31 30 29 27 26 26 26 26 26 27 27 27 27 28 28 29 29 29 28
34 34 33 32 31 31 30 31 31 31 31 31 32 32 32 32 33 34 34 35 36 36 35 34 33 33 33 33 33 32 31 31 32 31 31 31 31 32 32 32 33 33 33 33 32 32 32 32 32 31 30 29 28 27 27 27 28 29 29 28 27 27 28 28 29 29 29 29 29
35 35 35 34 33 32 31 31 31 31 31 32 32 32 32 32 32 32 33 34 36 36 35 33 33 33 33 33 32 32 31 31 31 32 32 32 32 32 32 33 33 33 33 32 32 32 32 32 31 30 29 28 28 28 28 29 30 30 30 29 28 28 29 30 30 30 30 31 30
35 36 36 35 35 34 33 32 31 31 31 31 31 32 31 32 32 32 33 34 35 35 34 34 33 33 32 32 32 31 31 31 31 32 33 33 33 33 33 32 32 31 31 31 31 32 32 32 30 29 28 28 29 30 31 31 31 31 30 30 30 31 32 32 32 32 32 32 31
35 36 36 35 34 34 34 33 32 31 31 30 30 30 31 31 32 32 33 34 33 33 33 33 33 32 31 31 31 31 31 31 32 32 33 34 34 34 33 32 31 30 30 30 31 32 32 32 30 29 29 29 30 31 32 32 32 31 31 32 33 33 34 34 34 34 34 33 32
35 35 34 34 34 34 34 34 33 31 31 31 30 31 32 33 33 34 34 34 34 34 33 33 32 31 30 30 30 31 31 31 32 33 34 34 34 34 33 32 31 31 31 32 33 34 33 32 30 28 28 28 29 29 30 31 31 31 32 32 33 34 34 34 35 35 35 35 34
35 34 33 34 35 36 36 36 35 34 33 33 33 33 34 35 36 36 35 35 34 34 33 32 31 31 30 30 30 31 31 32 33 34 34 34 34 34 33 33 32 33 33 34 34 34 32 30 28 27 26 26 26 27 28 29 29 30 31 31 32 33 33 34 35 36 36 36 35
36 35 35 35 36 37 38 38 38 38 37 36 36 37 38 38 37 36 34 33 32 32 32 31 31 31 31 32 32 32 33 34 35 35 35 34 33 33 34 33 34 34 34 34 33 32 30 28 26 25 24 24 24 26 27 28 28 29 29 30 31 32 33 34 35 36 36 36 35
38 38 38 38 38 37 38 39 39 39 39 38 40 41 40 38 36 35 33 31 30 29 30 30 31 32 33 34 34 35 36 37 36 35 35 34 33 33 33 34 34 33 33 33 32 30 29 27 25 24 23 24 25 26 28 29 30 30 30 31 32 33 34 35 36 36 37 37 37
40 40 40 40 39 39 38 39 39 38 39 39 41 41 39 37 35 33 33 31 30 29 29 30 30 32 34 36 37 38 38 38 36 35 35 34 33 32 32 33 33 32 32 31 30 29 28 27 25 25 25 26 28 29 31 33 33 34 34 34 35 36 36 37 37 37 37 38 38
42 42 41 40 40 39 39 39 39 39 39 40 40 40 38 36 34 33 32 31 31 31 31 31 32 34 36 38 39 39 38 36 35 34 34 33 32 31 31 31 31 31 31 30 29 29 29 27 27 27 29 31 32 34 35 36 36 36 36 36 37 37 37 37 38 38 38 38 38
43 42 41 39 39 39 39 39 39 39 40 41 41 40 38 35 33 32 32 32 32 32 32 32 34 36 37 39 39 38 36 35 33 33 32 31 30 29 29 29 29 29 29 29 29 29 28 27 28 30 33 35 35 35 35 35 36 36 36 36 36 36 36 36 36 36 37 37 37
43 43 41 39 39 39 38 39 40 40 42 42 42 40 37 35 32 31 31 32 32 32 31 31 33 35 36 36 36 36 35 34 33 32 31 29 28 27 26 26 26 27 27 28 27 27 26 26 29 32 34 35 35 34 33 34 35 36 37 37 36 36 35 34 34 34 35 36 37
42 42 42 40 40 40 39 39 40 41 42 42 42 40 38 36 34 32 31 32 33 33 31 30 31 33 34 35 35 35 35 34 33 31 29 27 26 25 24 25 26 26 26 26 25 24 25 28 32 34 33 33 32 32 32 33 34 35 36 36 35 34 32 31 32 33 34 36 36
40 42 43 42 41 41 41 40 40 41 41 41 41 39 38 37 35 33 32 33 33 33 32 30 30 32 33 33 34 35 35 34 33 32 30 28 27 26 26 26 27 28 27 26 23 23 26 31 34 34 33 32 32 31 31 32 32 33 33 33 33 32 31 31 31 32 33 34 34
39 41 43 44 43 42 42 43 41 40 40 40 40 39 38 36 35 34 34 34 34 33 32 31 31 31 32 32 34 35 35 35 34 32 31 30 29 29 29 29 29 29 27 24 22 24 28 31 33 34 34 34 32 31 30 30 29 30 30 30 30 30 31 31 31 31 31 31 31
39 41 43 44 44 44 44 43 43 42 42 41 40 39 38 37 36 35 35 35 35 34 33 33 32 31 31 32 34 35 35 34 34 33 31 30 31 32 32 31 30 27 24 21 22 25 28 30 31 34 36 37 34 31 28 26 26 26 27 27 28 30 31 31 30 29 29 29 29
40 41 42 44 45 46 46 45 45 44 42 40 39 38 37 36 36 36 36 36 35 35 35 35 33 32 32 33 34 34 34 33 32 32 31 31 32 33 33 30 27 23 20 21 23 26 27 28 30 32 35 38 37 33 28 25 25 25 25 26 28 29 30 30 30 29 28 27 27
39 40 41 43 45 46 47 48 47 45 42 39 37 36 36 37 37 38 37 36 35 34 34 34 32 32 33 34 34 33 33 33 32 31 31 32 32 32 30 27 23 20 20 24 28 30 29 28 28 30 33 37 39 36 32 28 27 27 27 27 28 28 29 29 29 29 28 28 27
36 38 39 41 43 45 47 47 46 44 42 39 37 37 37 38 38 38 37 35 33 32 31 31 32 32 33 33 33 33 32 32 32 32 32 32 32 30 27 22 19 19 22 27 30 31 30 29 29 29 31 34 38 39 36 33 30 29 29 28 28 28 28 28 28 29 29 29 28
34 35 36 38 40 41 43 43 43 42 40 39 38 37 37 37 37 37 36 34 32 30 30 31 32 32 33 33 33 33 32 32 32 32 32 33 32 29 24 20 20 22 25 28 28 28 28 29 29 29 30 33 36 39 39 36 32 30 29 28 27 27 28 28 29 29 29 29 29
33 33 33 34 35 36 36 37 37 38 38 37 37 37 37 36 35 35 34 33 32 30 30 30 31 32 33 33 33 33 32 31 31 31 32 32 30 27 24 23 24 26 26 26 26 26 26 27 28 29 30 32 35 38 38 36 32 29 28 27 26 27 27 28 29 29 29 29 28
31 30 30 31 31 31 31 31 32 34 34 35 35 36 36 34 33 33 33 32 30 29 28 28 29 30 31 31 32 32 31 30 30 31 31 31 29 27 26 26 25 25 25 25 24 24 24 25 27 28 30 32 35 36 36 34 31 29 27 26 26 27 27 28 29 29 28 28 27
28 28 28 28 28 27 27 28 29 30 31 32 32 33 33 32 32 32 31 30 29 27 26 26 26 28 29 28 29 30 30 30 30 30 31 30 29 29 28 27 26 25 25 25 25 25 25 26 28 29 30 32 34 33 32 31 29 28 27 26 26 27 27 27 27 27 27 27 27
26 26 26 25 25 25 25 26 26 27 28 29 30 30 30 30 30 30 29 29 28 27 26 26 26 27 28 28 27 28 29 30 30 30 30 31 31 31 29 27 26 26 26 26 26 26 27 28 29 29 31 32 32 30 29 27 26 25 26 26 26 26 26 26 26 26 25 26 26
25 25 24 24 24 25 25 25 26 27 28 28 29 29 29 29 29 29 29 29 28 27 27 26 26 27 28 28 27 27 28 29 29 29 29 30 31 30 28 27 26 26 27 27 28 28 28 28 28 29 30 31 30 28 26 25 24 24 24 25 25 25 25 24 24 24 24 25 25
24 25 25 26 26 26 26 26 27 28 29 29 28 28 28 29 29 29 29 29 29 28 27 26 26 26 26 26 27 27 28 28 28 29 29 30 30 29 28 27 27 27 27 27 27 27 27 26 26 27 28 29 28 27 25 24 23 23 24 24 23 23 23 23 23 23 23 24 24
25 26 27 27 28 28 28 28 28 29 29 28 28 27 27 28 28 28 29 29 28 27 26 25 25 25 25 26 26 26 26 28 29 30 31 30 29 28 27 27 27 26 26 26 26 26 26 26 26 26 26 26 26 25 24 23 22 23 23 23 23 23 23 23 23 22 23 23 24
25 27 28 28 29 29 29 28 28 28 28 28 27 27 27 27 27 27 27 27 26 25 24 23 24 25 25 26 25 24 26 28 29 30 30 28 27 26 26 25 25 24 24 24 24 25 25 25 25 25 25 25 24 24 24 22 22 22 22 22 23 24 23 23 22 22 22 22 23
Wind_Direction
211 211 210 210 210 209 209 209 209 209 209 208 207 208 209 209 211 212 214 215 216 217 219 220 222 223 224 224 225 225 225 225 226 226 228 229 231 232 233 234 234 234 234 234 234 234 233 233 232 232 233 234 233 232 231 229 228 229 229 230 230 230 231 231 231 231 231 230 231
212 212 212 212 211 211 210 211 211 211 211 211 210 210 211 212 213 214 216 217 218 219 221 222 223 224 225 226 227 227 227 227 227 228 228 230 231 232 233 234 234 235 235 235 234 233 232 232 231 231 232 234 234 233 232 231 230 229 229 230 230 231 231 231 233 233 233 232 232
212 213 213 212 212 211 210 211 212 212 212 212 213 213 213 214 215 216 218 219 220 221 222 223 224 225 226 228 229 229 230 230 230 229 230 230 231 232 233 233 234 235 235 235 234 233 232 231 230 230 231 233 234 234 233 232 231 229 229 230 231 231 231 232 233 234 234 233 232
213 213 213 213 212 212 211 211 212 213 213 214 214 215 215 216 217 219 220 221 222 222 223 224 225 226 227 228 230 231 231 232 232 231 231 232 231 232 232 233 234 234 235 235 234 233 232 231 230 230 231 233 234 235 234 233 231 230 230 231 231 231 231 232 234 235 234 233 232
214 214 214 214 214 214 214 214 213 214 215 215 215 216 217 218 219 220 221 222 223 224 225 226 226 226 227 228 230 231 232 233 233 233 233 233 232 232 232 232 233 233 234 234 233 233 232 231 230 230 232 233 235 236 235 234 232 231 231 231 231 231 232 233 234 235 235 233 233
215 215 216 216 216 216 216 216 216 216 216 216 216 217 218 219 220 221 222 223 224 225 227 228 228 228 228 229 230 231 232 233 233 233 233 233 233 232 232 232 232 233 233 233 233 233 232 231 230 230 232 233 234 236 236 235 234 233 232 232 232 232 232 233 235 235 235 234 233
216 216 217 217 218 218 218 218 217 217 217 217 217 218 219 220 221 222 223 224 225 226 227 228 228 228 228 229 230 231 232 232 233 234 234 233 233 232 231 231 232 232 232 233 233 233 232 231 230 230 231 232 234 235 236 236 235 234 233 233 233 233 233 233 234 235 235 234 233
218 218 218 219 219 219 219 219 219 218 218 219 219 220 220 221 222 223 224 225 225 226 227 228 229 229 228 229 230 231 232 232 232 233 233 233 232 231 230 230 231 231 232 233 233 233 232 231 231 230 231 232 233 235 236 236 235 235 234 234 235 235 235 234 235 236 236 235 235
219 220 220 220 220 221 221 221 221 220 220 221 222 223 223 223 223 224 225 225 226 227 228 229 230 230 230 230 230 231 232 233 232 232 232 231 230 229 229 230 230 231 232 232 232 232 232 232 231 232 232 232 233 235 236 236 235 235 235 236 238 238 238 238 238 238 238 237 236
219 220 221 221 221 222 222 222 223 223 223 224 225 225 226 226 226 226 226 227 227 228 228 229 230 231 231 231 231 231 232 233 232 231 230 230 229 228 227 228 229 230 230 231 231 231 231 231 232 232 233 233 234 235 236 237 236 235 236 238 239 239 239 239 240 241 240 239 238
220 220 220 221 221 222 222 223 224 225 225 226 227 228 228 228 228 228 228 229 229 229 229 230 230 231 231 232 231 232 232 232 232 230 228 229 229 228 227 227 227 228 229 229 229 229 229 230 231 232 233 234 234 234 235 235 235 236 237 239 240 239 238 239 240 241 240 239 239
220 220 221 221 221 221 222 223 224 226 226 228 229 230 230 230 231 231 230 230 230 230 231 231 231 231 232 232 232 232 231 231 230 229 228 227 228 228 227 227 227 227 228 227 227 227 227 228 229 231 232 232 232 231 231 231 232 234 237 240 241 240 239 239 240 240 239 240 240
220 220 221 221 221 221 221 222 224 226 227 228 229 230 231 232 233 233 232 231 231 232 233 232 232 232 232 232 232 231 230 229 228 227 226 226 227 227 227 227 227 226 226 226 225 225 225 226 228 228 229 229 229 228 227 228 230 233 236 240 241 242 243 243 242 240 239 237 237
220 220 220 220 220 220 220 221 224 226 228 229 230 231 232 233 234 234 233 233 233 233 233 233 232 232 232 232 231 230 229 228 227 226 225 224 225 226 227 227 227 226 225 224 224 224 225 226 227 227 226 225 225 225 226 227 230 233 236 239 241 245 247 246 244 240 237 235 234
220 220 220 220 220 219 219 221 223 226 228 229 231 232 233 234 235 235 234 234 234 234 234 233 232 232 232 232 231 230 228 227 226 225 224 223 224 226 227 226 226 224 223 223 224 225 226 227 227 226 225 223 223 225 227 229 231 233 236 239 242 246 249 248 244 240 236 234 233
219 219 219 218 218 219 220 221 223 225 227 229 230 232 232 234 235 235 234 234 234 234 233 232 232 232 231 231 230 229 228 226 225 225 224 222 223 224 224 224 222 221 221 222 224 226 227 227 227 226 225 223 224 226 228 229 231 233 236 240 244 246 247 247 243 240 237 235 233
220 219 218 217 216 217 219 221 223 226 228 229 230 231 232 233 234 234 233 233 232 232 232 231 231 230 230 229 229 227 226 225 224 224 223 222 222 221 221 220 219 219 220 222 225 227 227 227 226 226 226 226 226 227 228 228 228 230 234 239 242 243 244 243 242 240 237 236 234
221 221 219 217 217 218 220 221 223 225 228 230 231 232 232 232 232 232 232 231 230 230 230 230 229 228 228 228 228 227 225 224 224 224 224 224 223 221 219 218 218 220 222 224 225 226 226 226 225 226 226 227 227 228 227 227 226 227 230 234 237 240 241 241 240 239 238 236 236
222 221 220 218 218 218 220 221 223 225 227 228 231 232 232 231 231 230 229 228 228 228 227 227 227 226 226 227 227 227 226 225 225 225 225 225 224 221 218 217 218 220 222 224 224 224 224 224 224 224 225 226 227 228 228 228 227 227 228 230 233 236 238 239 239 239 239 238 238
221 221 220 219 218 217 218 219 221 223 224 226 229 232 232 231 230 228 227 226 226 226 226 225 225 224 225 226 227 227 227 227 227 226 225 224 222 219 217 216 217 219 221 222 221 221 221 222 222 223 223 225 227 230 231 231 230 228 228 230 233 236 238 238 238 238 239 239 239
221 221 220 220 219 218 218 219 220 220 221 222 225 228 230 230 229 227 225 225 224 224 224 223 223 223 224 225 226 227 228 228 226 225 224 224 221 219 217 216 216 218 219 219 219 218 218 219 219 220 222 226 229 231 233 233 231 230 230 232 235 237 238 239 238 238 238 238 239
221 221 221 220 220 219 219 220 221 221 222 222 224 227 229 229 227 225 224 224 223 223 223 223 223 225 226 226 226 227 227 227 225 224 224 224 222 220 218 216 216 216 217 216 216 215 215 216 218 221 225 228 229 230 231 231 231 231 233 235 238 239 239 238 238 237 237 237 239
221 221 221 221 220 220 220 220 221 222 223 224 226 228 229 229 227 225 223 222 221 221 222 223 226 229 230 230 229 227 226 226 225 224 224 223 221 219 218 216 215 214 214 213 212 211 211 214 220 227 231 231 229 228 227 228 229 231 233 236 238 238 238 237 237 237 237 237 238
220 220 220 220 219 219 219 219 220 221 223 225 226 228 229 228 226 224 222 220 220 220 221 223 226 228 230 230 229 227 225 224 223 223 222 220 219 217 216 215 213 212 211 210 209 209 211 217 228 234 235 231 228 224 223 224 226 228 231 233 234 235 236 236 236 236 236 236 238
219 219 219 218 219 218 218 218 219 220 222 224 225 226 227 226 225 222 220 218 217 217 220 225 229 229 228 227 226 225 224 223 221 220 218 216 215 214 212 211 210 209 208 209 208 211 219 230 239 239 235 228 224 222 221 222 225 228 231 232 232 232 233 234 234 235 235 236 238
219 219 218 218 218 218 218 217 218 219 221 223 224 225 225 225 224 221 218 215 213 212 217 227 234 233 229 226 224 223 222 221 220 217 214 212 212 210 207 206 207 207 206 206 210 220 235 248 249 242 233 225 221 220 221 223 226 228 230 231 231 231 231 231 233 234 235 237 238
219 218 218 218 217 218 219 218 219 219 220 221 222 223 223 223 222 220 217 213 211 210 214 224 234 236 231 226 222 220 219 218 218 217 216 217 214 207 202 201 202 205 207 210 219 236 250 255 252 243 233 226 222 220 221 224 226 228 229 230 230 230 230 231 232 233 235 236 237
218 218 218 218 217 217 219 221 220 220 221 221 221 222 222 221 221 219 217 214 212 212 215 221 229 233 232 227 222 219 217 216 216 217 218 216 211 205 202 202 203 206 210 218 235 252 259 256 251 243 236 230 225 223 224 225 227 228 229 229 230 230 231 231 232 232 233 234 236
218 218 218 217 217 217 218 220 221 221 222 222 222 222 223 222 221 219 217 215 215 215 217 220 224 228 228 225 222 219 216 215 215 215 214 210 204 203 204 206 207 209 216 233 251 261 262 258 251 244 238 233 228 225 225 226 227 227 227 228 229 230 231 231 231 231 232 233 235
218 218 217 217 217 217 218 218 220 221 222 222 222 222 222 222 221 219 218 217 217 218 219 219 220 221 221 220 218 215 212 211 211 210 207 201 196 196 199 204 206 213 229 251 263 266 263 258 252 247 242 236 231 227 226 226 226 227 227 227 229 230 230 230 230 230 230 232 233
218 217 217 217 217 217 218 218 220 221 222 222 222 221 221 221 220 220 219 218 219 220 221 220 218 216 215 214 212 210 208 207 206 204 200 194 190 190 191 196 203 219 242 261 269 269 264 258 255 251 246 239 233 228 226 226 226 227 228 229 229 230 230 229 229 229 230 231 232
219 218 217 217 217 218 218 218 219 220 220 220 220 220 220 220 220 220 219 218 219 220 220 218 216 213 211 209 207 206 204 203 201 198 195 191 188 187 188 195 210 232 251 262 267 267 264 260 258 255 249 242 235 230 227 226 227 228 229 230 230 230 229 229 229 229 230 232 232
221 220 218 218 218 219 219 218 218 218 218 218 218 218 218 218 218 219 218 218 218 218 217 215 212 209 206 204 202 201 200 199 197 195 192 189 187 186 190 205 229 245 254 260 261 262 262 262 260 256 251 244 238 232 229 227 226 227 229 230 230 230 230 230 230 231 233 233 234
225 222 220 219 219 219 219 218 217 216 216 216 216 216 216 215 216 216 216 216 217 216 216 214 211 208 205 202 200 198 196 196 194 191 189 187 186 189 199 215 237 248 253 257 257 258 259 261 261 258 252 245 238 233 229 226 225 226 227 228 229 230 231 232 233 235 235 235 235
227 225 223 222 221 220 219 217 216 215 215 214 215 215 214 213 212 213 213 214 214 213 212 210 208 205 202 200 199 196 193 190 188 187 186 186 189 197 208 221 235 245 251 255 256 258 260 262 261 258 252 243 236 231 227 225 224 224 226 227 229 230 232 234 235 236 236 236 235
229 226 224 222 220 218 216 214 213 212 212 212 212 212 211 210 209 210 210 210 209 207 204 201 199 197 195 195 194 192 190 187 184 185 187 192 198 206 216 227 237 245 250 253 255 259 263 264 263 257 248 239 232 228 225 223 223 223 225 226 228 231 233 234 235 236 236 236 236
228 225 221 217 213 211 210 209 208 208 208 209 210 209 208 206 206 206 206 205 201 198 195 192 190 189 190 191 189 187 187 186 186 189 194 201 206 211 219 231 240 247 250 252 255 259 264 266 263 254 243 233 228 225 223 222 222 222 224 226 228 231 232 234 235 235 236 236 237
224 220 215 209 205 204 204 204 204 204 205 206 206 206 205 203 202 202 201 198 194 190 187 185 185 187 188 188 186 185 186 189 192 198 204 209 211 215 222 233 242 248 251 252 253 256 259 261 256 247 237 230 227 224 222 220 220 221 222 224 226 228 230 231 232 233 234 235 236
217 213 209 205 201 200 201 201 202 203 203 202 202 201 201 200 199 199 198 196 192 188 185 185 186 187 187 185 184 184 188 194 202 209 213 214 216 220 226 236 244 249 251 251 250 249 249 249 245 239 234 231 229 225 222 219 218 219 220 221 222 224 225 227 228 229 231 232 233
211 209 207 204 202 201 201 201 201 202 201 199 197 196 196 196 196 195 194 192 189 186 185 188 189 189 186 184 184 188 195 203 209 213 214 215 219 224 231 239 245 248 248 246 244 242 241 239 237 235 234 233 231 227 222 218 217 217 217 217 217 218 220 222 224 225 226 227 227
207 206 204 203 203 202 201 199 199 199 198 196 194 194 195 193 190 187 184 183 183 183 184 185 186 187 187 188 191 197 203 207 209 210 212 215 221 228 234 238 240 241 240 240 239 238 237 237 236 236 235 233 231 227 221 216 214 214 214 213 214 214 215 217 218 219 220 221 221